Time[GMT],air_temperature[C](-3m),wind_speed[m/s](-4m),wind_gust[m/s](-4m),barometric_pressure[millibars](-3m),wind_2_direction[degrees_true](-4m),wind_2_gust[m/s](-4m),wind_2_gust_1s[m/s](-4m),wind_2_min[m/s](-4m),wind_2_percent_good[1](-4m),wind_2_speed[m/s](-4m),wind_direction[degrees_true](-4m),wind_gust_1s[m/s](-4m),wind_min[m/s](-4m)
2016-04-28 14:00,27.2,,,1013.64,120.30,7.50,8.60,2.86,1.00,5.88,,,
2016-04-28 15:00,27.7,,,1014.36,132.60,7.35,8.42,2.64,1.00,5.97,,,
2016-04-28 16:00,27.6,,,1013.10,105.60,7.73,9.28,3.41,1.00,6.20,,,
2016-04-28 17:00,27.5,,,1013.10,127.00,8.66,9.77,3.90,1.00,6.96,,,
2016-04-28 18:00,27.8,,,1012.32,133.60,7.49,8.52,3.30,1.00,6.01,,,
2016-04-28 19:00,28.0,,,1012.02,142.10,6.22,7.54,2.82,1.00,5.20,,,
2016-04-28 20:00,27.9,,,1011.42,152.70,7.11,8.50,3.36,1.00,5.73,,,
2016-04-28 21:00,28.1,,,1011.60,136.90,5.17,6.44,2.33,1.00,4.21,,,
2016-04-28 22:00,28.0,,,1011.96,138.90,5.03,5.87,1.79,1.00,4.03,,,
2016-04-28 23:00,27.9,,,1012.32,139.60,3.86,4.37,0.94,1.00,2.82,,,
2016-04-29 00:00,27.7,,,1012.50,149.10,4.49,5.04,2.16,1.00,3.72,,,
2016-04-29 01:00,27.6,,,1013.16,132.00,3.54,4.51,0.56,1.00,2.75,,,
2016-04-29 02:00,27.7,,,1013.76,113.00,3.96,5.08,0.76,1.00,2.56,,,
2016-04-29 03:00,27.5,,,1013.28,115.20,6.61,7.44,2.27,1.00,4.97,,,
2016-04-29 04:00,27.5,,,1013.46,113.70,5.63,6.68,1.57,1.00,4.57,,,
2016-04-29 05:00,27.4,,,1012.86,112.90,5.93,6.79,2.68,1.00,4.87,,,
2016-04-29 06:00,27.3,,,1012.14,110.10,5.56,6.55,2.26,1.00,4.61,,,
2016-04-29 07:00,27.3,,,1011.72,111.60,4.37,5.64,1.70,1.00,3.59,,,
2016-04-29 08:00,27.2,,,1011.48,112.00,4.73,5.80,2.21,1.00,3.91,,,
2016-04-29 09:00,27.3,,,1011.78,104.20,5.41,6.21,2.39,1.00,4.32,,,
2016-04-29 10:00,27.3,,,1012.56,94.80,5.15,6.08,2.18,1.00,4.18,,,
2016-04-29 11:00,27.3,,,1012.80,103.60,4.32,5.22,1.84,1.00,3.54,,,
2016-04-29 12:00,27.0,,,1013.22,134.30,5.33,6.39,2.37,1.00,4.22,,,
2016-04-29 13:00,27.0,,,1013.46,134.90,4.38,5.23,1.48,1.00,3.22,,,
2016-04-29 14:00,27.6,,,1013.22,114.90,7.99,10.39,3.60,1.00,6.64,,,
2016-04-29 15:00,27.6,,,1013.28,114.90,6.19,7.43,2.62,1.00,5.05,,,
2016-04-29 16:00,27.4,,,1013.34,95.20,5.24,6.40,1.83,1.00,3.90,,,
2016-04-29 17:00,26.2,,,1012.92,270.60,4.59,5.67,0.25,1.00,2.87,,,
2016-04-29 18:00,25.8,,,1012.26,272.10,3.70,4.88,0.43,1.00,2.72,,,
2016-04-29 19:00,25.1,,,1012.20,171.50,8.69,9.44,4.18,1.00,6.86,,,
2016-04-29 20:00,25.9,,,1010.16,132.70,15.03,16.84,4.80,1.00,8.56,,,
2016-04-29 21:00,26.6,,,1011.60,133.90,5.74,7.08,2.34,1.00,4.68,,,
2016-04-29 22:00,26.6,,,1011.36,151.40,5.31,5.96,2.26,1.00,4.12,,,
2016-04-29 23:00,27.0,,,1011.72,134.30,5.35,6.61,2.46,1.00,4.24,,,
2016-04-30 00:00,27.0,,,1012.32,128.20,3.90,4.91,1.49,1.00,3.13,,,
2016-04-30 01:00,27.3,,,1012.86,127.80,3.09,3.99,1.22,1.00,2.50,,,
2016-04-30 02:00,27.4,,,1012.92,133.60,4.39,5.30,1.40,1.00,3.17,,,
2016-04-30 03:00,27.4,,,1012.80,147.20,4.77,5.54,1.59,1.00,3.72,,,
2016-04-30 04:00,27.3,,,1012.44,141.60,3.80,4.72,1.70,1.00,3.10,,,
2016-04-30 05:00,27.4,,,1011.48,121.80,3.96,4.95,0.82,1.00,3.19,,,
2016-04-30 06:00,27.4,,,1011.00,125.30,5.14,5.94,2.06,1.00,4.13,,,
2016-04-30 07:00,27.2,,,1010.76,164.70,4.82,5.31,2.09,1.00,3.71,,,
2016-04-30 08:00,26.5,,,1010.28,168.60,1.91,3.09,0.19,1.00,1.45,,,
2016-04-30 09:00,27.2,,,1010.46,154.60,4.87,5.17,1.80,1.00,3.34,,,
2016-04-30 10:00,27.2,,,1011.24,168.40,3.72,4.41,1.63,1.00,3.06,,,
2016-04-30 11:00,26.7,,,1012.32,127.20,2.66,3.41,0.31,1.00,1.95,,,
2016-04-30 12:00,26.1,,,1012.62,186.90,4.27,5.18,2.02,1.00,3.12,,,
2016-04-30 13:00,26.0,,,1012.98,204.20,10.73,11.09,1.94,1.00,5.01,,,
2016-04-30 14:00,25.4,,,1013.34,206.80,6.62,7.88,0.78,1.00,5.35,,,
2016-04-30 15:00,25.5,,,1013.10,162.30,4.98,5.99,0.73,1.00,3.28,,,
2016-04-30 16:00,24.9,,,1012.92,92.60,11.65,13.09,5.21,1.00,9.08,,,
2016-04-30 17:00,25.2,,,1012.68,112.70,11.46,12.75,5.46,1.00,9.39,,,
2016-04-30 18:00,25.5,,,1011.66,109.90,11.71,13.64,5.13,1.00,8.91,,,
2016-04-30 19:00,25.8,,,1011.18,117.40,8.53,10.11,4.19,1.00,7.08,,,
2016-04-30 20:00,25.5,,,1011.12,120.70,10.23,11.46,4.09,1.00,7.80,,,
2016-04-30 21:00,25.8,,,1010.88,119.20,9.43,10.75,3.80,1.00,7.61,,,
2016-04-30 22:00,26.1,,,1011.66,132.30,10.40,11.59,4.26,1.00,8.00,,,
2016-04-30 23:00,26.2,,,1012.02,139.70,8.09,9.28,3.38,1.00,6.63,,,
2016-05-01 00:00,26.1,,,1012.50,159.20,6.67,7.64,3.02,1.00,5.46,,,
2016-05-01 01:00,25.9,,,1013.04,159.20,4.69,5.50,1.74,1.00,3.70,,,
2016-05-01 02:00,25.9,,,1013.58,172.20,3.78,4.29,1.81,1.00,2.94,,,
2016-05-01 03:00,26.0,,,1013.46,174.90,4.12,4.91,1.62,1.00,3.03,,,
2016-05-01 04:00,26.1,,,1013.16,185.70,4.20,4.75,1.90,1.00,3.44,,,
2016-05-01 05:00,26.1,,,1013.04,155.30,1.58,2.51,0.04,1.00,1.04,,,
2016-05-01 06:00,26.1,,,1012.44,99.40,2.73,3.58,0.37,1.00,2.05,,,
2016-05-01 07:00,26.2,,,1012.08,98.60,2.45,3.21,0.38,1.00,1.69,,,
2016-05-01 08:00,26.3,,,1011.72,87.70,2.18,2.84,0.37,1.00,1.71,,,
2016-05-01 09:00,26.4,,,1011.54,111.60,2.88,3.57,1.15,1.00,2.26,,,
2016-05-01 10:00,26.3,,,1012.02,61.23,3.04,3.49,1.07,1.00,2.27,,,
2016-05-01 11:00,26.6,,,1012.86,39.66,5.35,5.90,2.82,1.00,4.31,,,
2016-05-01 12:00,25.8,,,1013.82,97.60,5.79,6.60,0.79,1.00,4.45,,,
2016-05-01 13:00,26.5,,,1014.24,96.10,5.73,7.12,2.32,1.00,4.78,,,
2016-05-01 14:00,26.6,,,1014.42,83.00,4.94,6.04,2.25,1.00,4.22,,,
2016-05-01 15:00,26.8,,,1014.48,67.39,5.85,7.27,2.96,1.00,4.95,,,
2016-05-01 16:00,26.7,,,1014.36,144.60,5.34,5.83,1.84,1.00,3.88,,,
2016-05-01 17:00,24.1,,,1014.54,95.30,9.53,11.30,4.07,1.00,7.36,,,
2016-05-01 18:00,25.6,,,1014.00,93.40,8.82,10.17,4.00,1.00,7.09,,,
2016-05-01 19:00,26.0,,,1014.06,101.70,7.97,9.97,3.46,1.00,6.53,,,
2016-05-01 20:00,24.5,,,1014.36,144.00,10.52,12.08,4.64,1.00,8.51,,,
2016-05-01 21:00,24.3,,,1014.18,152.80,11.03,12.23,4.52,1.00,8.97,,,
2016-05-01 22:00,24.6,,,1014.18,156.40,7.55,9.06,2.52,1.00,5.78,,,
2016-05-01 23:00,24.3,,,1015.02,168.00,4.45,5.44,1.22,1.00,3.13,,,
2016-05-02 00:00,25.3,,,1015.56,166.40,2.57,3.45,0.33,1.00,1.89,,,
2016-05-02 01:00,26.0,,,1015.68,132.70,5.81,6.65,2.17,1.00,3.85,,,
2016-05-02 02:00,26.0,,,1015.68,135.20,6.29,7.34,2.55,1.00,4.94,,,
2016-05-02 03:00,25.9,,,1015.26,119.60,4.20,5.42,1.15,1.00,3.36,,,
2016-05-02 04:00,26.0,,,1015.14,124.90,4.12,4.85,0.96,1.00,3.11,,,
2016-05-02 05:00,25.9,,,1014.54,111.00,4.14,4.86,0.81,1.00,3.08,,,
2016-05-02 06:00,25.8,,,1014.06,82.30,4.97,5.86,2.04,1.00,3.73,,,
2016-05-02 07:00,25.8,,,1013.76,68.00,4.23,4.83,1.89,1.00,3.33,,,
2016-05-02 08:00,25.7,,,1013.58,58.76,3.31,4.31,1.50,1.00,2.70,,,
2016-05-02 09:00,26.1,,,1014.00,47.21,4.78,5.42,1.58,1.00,3.42,,,
2016-05-02 10:00,26.2,,,1014.24,54.24,4.85,5.69,2.40,1.00,3.71,,,
2016-05-02 11:00,25.8,,,1014.78,104.50,6.99,7.48,2.95,1.00,5.11,,,
2016-05-02 12:00,26.0,,,1015.56,97.30,6.32,7.47,2.45,1.00,5.08,,,
2016-05-02 13:00,25.7,,,1016.40,98.30,8.67,9.80,2.56,1.00,6.06,,,
2016-05-02 14:00,25.5,,,1016.82,101.20,9.88,11.83,4.85,1.00,8.05,,,
2016-05-02 15:00,25.9,,,1016.64,104.00,9.23,10.69,3.97,1.00,7.16,,,
2016-05-02 16:00,26.3,,,1016.28,108.30,6.25,7.53,2.74,1.00,4.96,,,
2016-05-02 17:00,26.4,,,1016.10,97.90,5.98,6.94,2.52,1.00,4.87,,,
2016-05-02 18:00,26.6,,,1015.50,106.80,5.97,7.31,2.62,1.00,4.64,,,
2016-05-02 19:00,26.7,,,1015.08,104.10,7.23,8.41,3.25,1.00,5.79,,,
2016-05-02 20:00,26.9,,,1015.08,98.00,6.00,7.52,2.51,1.00,5.05,,,
2016-05-02 21:00,27.0,,,1014.78,101.40,6.97,8.73,3.10,1.00,5.76,,,
2016-05-02 22:00,27.0,,,1015.08,104.40,7.72,9.26,3.04,1.00,6.27,,,
2016-05-02 23:00,24.5,,,1015.62,117.60,14.07,16.12,5.93,1.00,11.13,,,
2016-05-03 00:00,24.8,,,1016.40,121.80,9.07,10.26,2.35,1.00,5.52,,,
2016-05-03 01:00,25.8,,,1016.94,92.70,7.06,8.22,2.78,1.00,5.67,,,
2016-05-03 02:00,25.9,,,1017.42,85.40,7.76,9.10,2.69,1.00,6.07,,,
2016-05-03 03:00,25.6,,,1017.36,101.70,7.17,8.20,3.53,1.00,5.96,,,
2016-05-03 04:00,26.2,,,1017.00,116.10,7.64,9.50,3.62,1.00,6.50,,,
2016-05-03 05:00,24.9,,,1016.58,150.20,7.98,9.09,3.42,1.00,6.30,,,
2016-05-03 06:00,24.7,,,1015.68,152.70,7.26,8.80,3.46,1.00,5.64,,,
2016-05-03 07:00,25.2,,,1014.90,122.90,6.37,7.13,2.42,1.00,4.86,,,
2016-05-03 08:00,25.6,,,1015.08,121.70,7.22,8.14,3.00,1.00,5.46,,,
2016-05-03 09:00,25.9,,,1015.20,119.50,6.88,7.88,3.30,1.00,5.44,,,
2016-05-03 10:00,26.1,,,1015.38,113.30,6.99,8.09,2.18,1.00,5.57,,,
2016-05-03 11:00,26.2,,,1015.80,113.90,6.39,7.86,3.23,1.00,5.37,,,
2016-05-03 12:00,26.7,,,1016.22,109.90,5.84,7.21,2.41,1.00,4.74,,,
2016-05-03 13:00,27.1,,,1016.76,116.30,5.89,7.05,2.19,1.00,4.64,,,
2016-05-03 14:00,27.0,,,1017.06,102.20,6.58,8.20,2.77,1.00,5.01,,,
2016-05-03 15:00,27.1,,,1016.70,105.60,7.12,8.09,2.60,1.00,5.70,,,
2016-05-03 16:00,27.0,,,1016.28,104.10,6.93,8.89,2.69,1.00,5.79,,,
2016-05-03 17:00,27.0,,,1015.80,97.70,7.60,9.08,3.54,1.00,6.36,,,
2016-05-03 18:00,27.1,,,1015.08,99.70,6.83,8.63,3.31,1.00,5.81,,,
2016-05-03 19:00,27.1,,,1014.54,93.90,7.73,8.62,3.29,1.00,6.01,,,
2016-05-03 20:00,27.2,,,1014.12,94.90,7.32,8.73,3.16,1.00,5.96,,,
2016-05-03 21:00,27.3,,,1014.12,90.90,7.23,9.07,3.41,1.00,5.79,,,
2016-05-03 22:00,27.2,,,1014.36,101.40,8.13,9.42,2.27,1.00,6.74,,,
2016-05-03 23:00,26.9,,,1014.66,101.20,8.78,10.46,4.11,1.00,7.14,,,
2016-05-04 00:00,27.0,,,1015.38,96.10,7.48,8.69,3.47,1.00,6.28,,,
2016-05-04 01:00,26.9,,,1016.04,92.20,7.95,9.13,3.07,1.00,6.27,,,
2016-05-04 02:00,26.9,,,1016.46,92.10,7.93,9.30,3.54,1.00,6.46,,,
2016-05-04 03:00,26.9,,,1016.40,94.70,7.03,7.92,3.33,1.00,5.66,,,
2016-05-04 04:00,26.7,,,1015.74,88.90,7.72,9.12,3.94,1.00,6.20,,,
2016-05-04 05:00,26.7,,,1015.14,81.20,6.26,7.39,2.40,1.00,5.16,,,
2016-05-04 06:00,26.8,,,1014.24,92.10,6.46,7.89,2.51,1.00,4.90,,,
2016-05-04 07:00,26.9,,,1013.88,94.70,7.41,8.36,2.70,1.00,5.74,,,
2016-05-04 08:00,26.9,,,1013.64,98.90,7.45,8.70,2.79,1.00,5.68,,,
2016-05-04 09:00,26.9,,,1013.82,102.90,7.39,9.11,3.79,1.00,6.30,,,
2016-05-04 10:00,26.9,,,1014.30,92.80,7.09,8.51,2.69,1.00,5.89,,,
2016-05-04 11:00,27.1,,,1014.90,100.30,6.66,7.98,3.41,1.00,5.52,,,
2016-05-04 12:00,27.1,,,1015.32,106.80,7.37,8.66,3.37,1.00,6.16,,,
2016-05-04 13:00,27.2,,,1015.38,103.40,7.70,8.47,3.82,1.00,6.22,,,
2016-05-04 14:00,27.3,,,1015.74,113.50,7.22,8.59,3.22,1.00,5.95,,,
2016-05-04 15:00,27.3,,,1015.80,111.50,7.30,8.43,3.67,1.00,5.85,,,
2016-05-04 16:00,27.3,,,1015.14,109.60,7.56,8.85,3.60,1.00,5.99,,,
2016-05-04 17:00,27.3,,,1014.36,107.60,8.76,10.05,4.39,1.00,6.86,,,
2016-05-04 18:00,25.4,,,1013.82,177.10,10.11,11.62,4.72,1.00,7.70,,,
2016-05-04 19:00,25.5,,,1013.46,130.60,8.82,10.06,1.57,1.00,7.00,,,
2016-05-04 20:00,25.9,,,1012.92,110.20,5.20,6.06,0.83,1.00,3.60,,,
2016-05-04 21:00,26.7,,,1012.80,115.70,4.81,5.84,1.78,1.00,4.08,,,
2016-05-04 22:00,27.3,,,1012.80,108.10,6.81,8.02,3.03,1.00,5.43,,,
2016-05-04 23:00,27.3,,,1013.16,108.30,6.54,7.85,2.27,1.00,5.31,,,
2016-05-05 00:00,27.3,,,1013.46,103.50,7.42,8.45,3.79,1.00,5.89,,,
2016-05-05 01:00,27.2,,,1014.06,97.60,7.24,8.00,2.78,1.00,5.80,,,
2016-05-05 02:00,27.2,,,1014.54,96.20,7.54,9.07,3.02,1.00,6.04,,,
2016-05-05 03:00,27.2,,,1015.08,94.10,7.34,8.73,3.04,1.00,6.09,,,
2016-05-05 04:00,27.0,,,1014.54,121.60,7.83,9.14,3.49,1.00,5.98,,,
2016-05-05 05:00,26.9,,,1014.00,106.00,7.49,8.78,3.71,1.00,6.24,,,
2016-05-05 06:00,26.7,,,1013.34,100.40,7.19,9.16,3.61,1.00,5.93,,,
2016-05-05 07:00,26.7,,,1012.80,99.20,7.57,8.97,3.77,1.00,6.45,,,
2016-05-05 08:00,26.9,,,1012.56,101.20,9.24,10.54,4.03,1.00,7.07,,,
2016-05-05 09:00,27.0,,,1012.56,104.50,9.57,11.38,4.36,1.00,7.66,,,
2016-05-05 10:00,26.8,,,1012.92,124.70,9.81,10.86,3.80,1.00,7.78,,,
2016-05-05 11:00,26.7,,,1013.46,124.20,9.04,10.48,4.57,1.00,7.42,,,
2016-05-05 12:00,27.0,,,1013.88,128.60,7.29,9.40,2.98,1.00,5.97,,,
2016-05-05 13:00,27.0,,,1014.42,124.20,7.64,8.88,3.44,1.00,6.24,,,
2016-05-05 14:00,27.1,,,1014.54,121.10,7.50,8.77,3.18,1.00,5.98,,,
2016-05-05 15:00,27.1,,,1014.48,117.10,7.46,9.37,3.47,1.00,6.15,,,
2016-05-05 16:00,27.0,,,1014.18,105.60,6.50,7.58,3.30,1.00,5.48,,,
2016-05-05 17:00,27.2,,,1013.52,103.90,6.32,7.89,2.97,1.00,5.35,,,
2016-05-05 18:00,27.5,,,1012.74,106.30,8.52,10.20,3.94,1.00,7.14,,,
2016-05-05 19:00,27.5,,,1011.90,113.90,8.76,10.18,4.27,1.00,7.31,,,
2016-05-05 20:00,27.4,,,1011.48,132.50,13.93,15.35,3.94,1.00,9.43,,,
2016-05-05 21:00,26.6,,,1011.18,118.00,8.65,9.70,3.78,1.00,6.84,,,
2016-05-05 22:00,27.0,,,1011.66,128.00,6.70,7.88,2.50,1.00,5.11,,,
2016-05-05 23:00,27.5,,,1012.08,116.20,8.42,10.37,4.32,1.00,6.97,,,
2016-05-06 00:00,27.6,,,1012.80,117.00,8.94,10.25,4.10,1.00,6.88,,,
2016-05-06 01:00,27.3,,,1013.46,105.70,8.63,9.54,3.92,1.00,6.64,,,
2016-05-06 02:00,27.4,,,1013.70,113.70,8.07,9.16,3.90,1.00,6.54,,,
2016-05-06 03:00,27.2,,,1013.70,117.00,8.41,9.75,2.96,1.00,6.74,,,
2016-05-06 04:00,27.0,,,1013.58,117.70,6.57,8.44,2.48,1.00,5.35,,,
2016-05-06 05:00,27.2,,,1012.86,138.30,5.72,6.48,2.79,1.00,4.70,,,
2016-05-06 06:00,27.2,,,1012.32,138.90,6.07,7.39,2.26,1.00,4.85,,,
2016-05-06 07:00,27.0,,,1011.90,130.00,5.94,7.30,2.97,1.00,4.75,,,
2016-05-06 08:00,27.2,,,1011.54,145.80,5.80,6.55,2.63,1.00,4.65,,,
2016-05-06 09:00,26.9,,,1011.96,138.60,5.98,7.47,2.69,1.00,4.69,,,
2016-05-06 10:00,27.1,,,1012.14,143.90,6.81,7.58,2.96,1.00,5.33,,,
2016-05-06 11:00,27.3,,,1012.68,148.90,5.94,7.25,2.50,1.00,4.47,,,
2016-05-06 12:00,27.5,,,1012.68,142.90,7.21,8.31,3.10,1.00,5.57,,,
2016-05-06 13:00,27.6,,,1012.92,145.80,7.44,8.59,3.49,1.00,5.89,,,
2016-05-06 14:00,27.9,,,1013.10,144.70,8.21,10.05,4.08,1.00,6.75,,,
2016-05-06 15:00,28.1,,,1013.16,143.20,9.09,10.36,3.59,1.00,6.95,,,
2016-05-06 16:00,28.1,,,1012.92,148.40,8.22,9.24,3.91,1.00,6.58,,,
2016-05-06 17:00,28.5,,,1012.86,155.50,8.18,9.30,4.15,1.00,6.62,,,
2016-05-06 18:00,28.5,,,1012.08,145.90,7.75,8.68,3.77,1.00,6.43,,,
2016-05-06 19:00,28.3,,,1011.24,151.30,7.23,8.16,2.86,1.00,5.79,,,
2016-05-06 20:00,28.3,,,1011.18,154.40,7.37,8.50,3.34,1.00,5.60,,,
2016-05-06 21:00,28.2,,,1011.00,146.30,8.05,9.64,3.86,1.00,6.42,,,
2016-05-06 22:00,28.0,,,1011.30,144.70,6.71,7.81,2.63,1.00,5.31,,,
2016-05-06 23:00,28.0,,,1011.72,149.20,7.26,8.13,3.72,1.00,5.70,,,
2016-05-07 00:00,27.8,,,1012.44,133.70,6.95,8.52,3.26,1.00,5.75,,,
2016-05-07 01:00,27.8,,,1012.86,132.80,6.74,8.63,2.54,1.00,5.31,,,
2016-05-07 02:00,27.9,,,1013.28,133.50,7.89,9.14,3.45,1.00,6.16,,,
2016-05-07 03:00,27.7,,,1013.46,132.20,7.57,8.51,3.48,1.00,6.30,,,
2016-05-07 04:00,27.6,,,1013.40,137.80,7.36,8.41,3.89,1.00,5.94,,,
2016-05-07 05:00,27.5,,,1012.80,138.10,7.89,8.99,3.72,1.00,6.25,,,
2016-05-07 06:00,27.4,,,1012.38,142.50,7.59,8.72,3.55,1.00,6.22,,,
2016-05-07 07:00,27.6,,,1011.96,149.20,8.53,9.84,3.89,1.00,7.18,,,
2016-05-07 08:00,27.5,,,1011.60,147.30,7.19,8.57,3.54,1.00,5.71,,,
2016-05-07 09:00,27.6,,,1011.42,148.00,7.69,8.89,3.49,1.00,6.23,,,
2016-05-07 10:00,27.6,,,1011.42,144.40,8.24,9.11,3.40,1.00,6.15,,,
2016-05-07 11:00,27.8,,,1011.78,152.20,8.87,10.33,4.56,1.00,6.83,,,
2016-05-07 12:00,27.9,,,1012.08,149.30,9.14,10.82,3.46,1.00,7.14,,,
2016-05-07 13:00,27.9,,,1012.32,143.00,9.80,11.44,4.59,1.00,7.85,,,
2016-05-07 14:00,28.2,,,1012.38,143.10,11.31,12.94,3.83,1.00,9.16,,,
2016-05-07 15:00,28.3,,,1012.86,149.40,11.68,12.55,4.35,1.00,8.58,,,
2016-05-07 16:00,28.4,,,1012.86,149.30,10.03,11.69,5.02,1.00,8.22,,,
2016-05-07 17:00,28.5,,,1013.16,157.70,8.40,10.66,3.14,1.00,6.64,,,
2016-05-07 18:00,28.5,,,1012.26,164.10,8.77,10.26,2.93,1.00,7.01,,,
2016-05-07 19:00,28.5,,,1012.32,157.40,9.94,10.99,4.06,1.00,7.49,,,
2016-05-07 20:00,28.4,,,1012.20,157.30,7.60,8.40,2.98,1.00,5.76,,,
2016-05-07 21:00,28.3,,,1011.84,157.00,8.80,10.36,2.61,1.00,6.55,,,
2016-05-07 22:00,28.2,,,1011.84,156.40,7.80,8.95,3.25,1.00,6.08,,,
2016-05-07 23:00,28.0,,,1011.78,149.50,7.79,9.12,3.70,1.00,6.08,,,
2016-05-08 00:00,27.9,,,1012.02,149.30,7.03,7.97,3.27,1.00,5.72,,,
2016-05-08 01:00,27.9,,,1012.38,147.30,7.09,8.39,2.80,1.00,5.74,,,
2016-05-08 02:00,27.9,,,1013.10,153.10,6.10,6.99,2.52,1.00,5.00,,,
2016-05-08 03:00,27.8,,,1013.58,149.10,6.16,7.78,1.85,1.00,5.02,,,
2016-05-08 04:00,27.8,,,1014.00,161.70,5.54,6.22,2.57,1.00,4.55,,,
2016-05-08 05:00,27.7,,,1013.88,166.30,4.04,5.04,1.64,1.00,3.07,,,
2016-05-08 06:00,27.6,,,1013.82,168.10,2.27,3.03,0.86,1.00,1.99,,,
2016-05-08 07:00,27.5,,,1013.28,162.10,2.71,3.24,0.84,1.00,2.06,,,
2016-05-08 08:00,27.3,,,1012.86,151.30,4.71,5.32,2.29,1.00,3.84,,,
2016-05-08 09:00,27.4,,,1013.16,149.40,5.43,6.10,2.42,1.00,4.38,,,
2016-05-08 10:00,27.4,,,1014.18,160.70,3.28,3.92,1.28,1.00,2.35,,,
2016-05-08 11:00,27.5,,,1015.02,319.80,1.34,1.93,0.03,1.00,0.69,,,
2016-05-08 12:00,26.1,,,1015.44,324.30,6.76,7.83,3.03,1.00,5.29,,,
2016-05-08 13:00,27.0,,,1015.38,112.10,4.02,4.92,1.09,1.00,2.74,,,
2016-05-08 14:00,26.6,,,1015.74,101.00,3.77,4.60,1.39,1.00,3.05,,,
2016-05-08 15:00,27.2,,,1015.62,91.70,2.29,2.82,0.16,1.00,1.54,,,
2016-05-08 16:00,27.4,,,1015.32,11.43,1.70,2.40,0.09,1.00,0.94,,,
2016-05-08 17:00,27.2,,,1014.78,9.78,2.50,3.22,0.54,1.00,1.78,,,
2016-05-08 18:00,27.0,,,1013.82,341.70,3.41,3.81,1.55,1.00,2.69,,,
2016-05-08 19:00,26.8,,,1013.22,17.00,3.48,3.99,1.58,1.00,2.76,,,
2016-05-08 20:00,26.9,,,1012.98,5.26,2.49,2.67,0.45,1.00,1.74,,,
2016-05-08 21:00,26.9,,,1012.80,34.45,2.75,3.34,0.94,1.00,2.08,,,
2016-05-08 22:00,26.8,,,1013.10,12.20,3.45,3.99,1.38,1.00,2.73,,,
2016-05-08 23:00,26.9,,,1013.40,25.07,5.08,5.60,2.68,1.00,4.05,,,
2016-05-09 00:00,27.1,,,1014.06,29.72,5.43,5.87,2.63,1.00,4.29,,,
2016-05-09 01:00,27.4,,,1014.30,13.78,6.40,7.25,2.31,1.00,5.02,,,
2016-05-09 02:00,26.0,,,1014.66,81.70,8.53,9.88,3.63,1.00,6.31,,,
2016-05-09 03:00,27.2,,,1014.84,37.51,7.06,8.20,3.54,1.00,5.88,,,
2016-05-09 04:00,27.3,,,1014.78,37.06,6.16,7.66,2.90,1.00,5.09,,,
2016-05-09 05:00,27.3,,,1014.42,37.80,5.78,6.46,1.97,1.00,4.31,,,
2016-05-09 06:00,27.2,,,1014.06,41.82,4.70,5.68,1.70,1.00,3.72,,,
2016-05-09 07:00,25.7,,,1013.76,84.30,6.48,7.52,2.82,1.00,5.11,,,
2016-05-09 08:00,27.0,,,1013.82,67.50,3.98,4.72,1.65,1.00,3.16,,,
2016-05-09 09:00,27.1,,,1013.94,86.80,5.77,6.33,0.79,1.00,4.61,,,
2016-05-09 10:00,26.3,,,1014.60,104.30,9.45,10.89,4.23,1.00,7.44,,,
2016-05-09 11:00,26.5,,,1015.14,92.70,7.96,9.47,3.68,1.00,6.51,,,
2016-05-09 12:00,26.6,,,1015.62,87.90,6.80,8.23,3.10,1.00,5.61,,,
2016-05-09 13:00,27.1,,,1015.98,98.40,7.45,8.70,3.27,1.00,5.60,,,
2016-05-09 14:00,27.6,,,1016.28,107.00,7.78,9.12,3.52,1.00,6.48,,,
2016-05-09 15:00,27.7,,,1016.28,106.70,7.05,8.94,2.78,1.00,5.74,,,
2016-05-09 16:00,27.7,,,1015.86,107.90,8.33,9.41,1.57,1.00,6.57,,,
2016-05-09 17:00,27.7,,,1015.20,107.80,8.23,10.02,3.33,1.00,6.53,,,
2016-05-09 18:00,27.7,,,1015.02,102.50,7.90,9.40,3.44,1.00,6.27,,,
2016-05-09 19:00,27.8,,,1014.60,100.50,7.26,8.61,3.39,1.00,6.00,,,
2016-05-09 20:00,27.8,,,1014.66,91.70,7.38,8.16,2.62,1.00,5.76,,,
2016-05-09 21:00,27.7,,,1014.36,96.30,7.12,8.47,3.02,1.00,5.89,,,
2016-05-09 22:00,27.7,,,1014.60,93.30,6.96,8.57,3.07,1.00,5.89,,,
2016-05-09 23:00,27.6,,,1014.84,83.90,6.50,7.78,2.63,1.00,5.27,,,
2016-05-10 00:00,27.1,,,1015.14,81.70,7.28,8.79,2.93,1.00,5.93,,,
2016-05-10 01:00,27.0,,,1015.68,83.60,7.63,8.74,2.68,1.00,5.71,,,
2016-05-10 02:00,27.2,,,1016.34,76.60,6.82,8.44,3.38,1.00,5.70,,,
2016-05-10 03:00,27.1,,,1016.40,85.30,6.63,8.12,0.79,1.00,5.66,,,
2016-05-10 04:00,26.3,,,1015.98,80.30,11.08,12.58,4.04,1.00,7.93,,,
2016-05-10 05:00,26.8,,,1015.32,80.10,8.00,9.20,3.15,1.00,6.56,,,
2016-05-10 06:00,26.9,,,1014.78,76.80,10.34,11.12,4.04,1.00,7.39,,,
2016-05-10 07:00,26.8,,,1014.42,74.70,8.17,9.42,3.53,1.00,6.32,,,
2016-05-10 08:00,27.0,,,1014.66,69.90,7.44,8.79,3.51,1.00,5.97,,,
2016-05-10 09:00,25.7,,,1014.84,104.60,10.11,11.41,4.14,1.00,7.99,,,
2016-05-10 10:00,25.8,,,1015.26,57.69,8.38,9.60,3.75,1.00,6.70,,,
2016-05-10 11:00,26.9,,,1015.62,85.30,9.40,10.79,4.40,1.00,7.65,,,
2016-05-10 12:00,27.1,,,1016.52,77.70,8.43,10.06,3.62,1.00,6.86,,,
2016-05-10 13:00,27.4,,,1016.82,89.60,9.20,10.35,4.04,1.00,7.53,,,
2016-05-10 14:00,27.5,,,1017.36,98.00,9.44,10.18,4.63,1.00,7.54,,,
2016-05-10 15:00,27.4,,,1017.30,96.70,8.01,9.86,3.31,1.00,6.42,,,
2016-05-10 16:00,27.5,,,1017.30,92.90,7.96,9.05,3.21,1.00,6.23,,,
2016-05-10 17:00,27.5,,,1016.82,91.40,7.73,8.97,2.96,1.00,5.69,,,
2016-05-10 18:00,27.6,,,1016.40,98.10,7.70,9.66,2.57,1.00,6.08,,,
2016-05-10 19:00,27.6,,,1015.98,103.20,7.68,9.29,3.94,1.00,6.53,,,
2016-05-10 20:00,27.6,,,1015.80,95.40,7.33,8.92,2.94,1.00,6.03,,,
2016-05-10 21:00,27.6,,,1016.04,94.90,7.87,8.87,3.46,1.00,6.24,,,
2016-05-10 22:00,27.6,,,1016.34,89.30,6.65,8.18,2.66,1.00,5.56,,,
2016-05-10 23:00,27.4,,,1016.58,71.40,7.43,9.11,3.14,1.00,6.07,,,
2016-05-11 00:00,27.3,,,1016.76,66.81,7.43,8.61,3.14,1.00,5.57,,,
2016-05-11 01:00,27.3,,,1017.06,76.30,6.44,7.59,3.06,1.00,5.17,,,
2016-05-11 02:00,27.2,,,1017.30,71.30,7.10,8.21,3.03,1.00,5.65,,,
2016-05-11 03:00,27.1,,,1017.36,78.30,6.72,8.16,3.51,1.00,5.68,,,
2016-05-11 04:00,27.1,,,1016.94,79.20,7.11,9.45,2.79,1.00,5.68,,,
2016-05-11 05:00,27.0,,,1016.46,80.40,5.79,7.16,2.17,1.00,4.75,,,
2016-05-11 06:00,27.0,,,1015.98,78.40,7.10,8.50,3.29,1.00,5.61,,,
2016-05-11 07:00,25.0,,,1015.68,89.20,12.00,13.81,4.71,1.00,9.22,,,
2016-05-11 08:00,26.9,,,1015.62,84.30,7.65,8.89,3.53,1.00,5.99,,,
2016-05-11 09:00,26.7,,,1015.86,82.30,6.81,7.85,3.16,1.00,5.31,,,
2016-05-11 10:00,26.7,,,1016.28,82.70,5.75,7.14,2.08,1.00,4.60,,,
2016-05-11 11:00,27.4,,,1016.70,87.50,8.23,9.47,3.46,1.00,6.47,,,
2016-05-11 12:00,27.5,,,1016.94,93.00,8.50,9.39,3.33,1.00,6.34,,,
2016-05-11 13:00,27.6,,,1017.06,97.40,7.93,9.83,3.51,1.00,6.45,,,
2016-05-11 14:00,27.5,,,1017.42,99.10,7.93,9.34,2.34,1.00,6.12,,,
2016-05-11 15:00,27.6,,,1017.00,96.30,7.77,9.19,3.93,1.00,6.52,,,
2016-05-11 20:00,27.5,,,1015.44,91.20,6.14,7.56,2.62,1.00,5.04,,,
2016-05-11 21:00,27.6,,,1015.56,102.20,6.34,7.53,3.03,1.00,5.21,,,
2016-05-11 22:00,27.6,,,1015.74,96.90,6.94,8.92,2.54,1.00,5.46,,,
2016-05-11 23:00,27.5,,,1016.16,100.90,6.54,8.04,3.35,1.00,5.49,,,
2016-05-12 00:00,27.5,,,1016.58,95.20,6.80,7.66,2.63,1.00,5.10,,,
2016-05-12 01:00,27.5,,,1016.88,88.40,6.53,7.54,3.22,1.00,5.39,,,
2016-05-12 02:00,27.3,,,1017.12,65.02,6.44,7.49,3.00,1.00,5.22,,,
2016-05-12 03:00,27.2,,,1017.12,66.87,6.45,7.06,2.22,1.00,5.03,,,
2016-05-12 04:00,27.0,,,1016.46,71.00,6.55,7.53,2.91,1.00,5.29,,,
2016-05-12 05:00,27.1,,,1015.92,79.00,7.13,8.63,3.23,1.00,6.06,,,
2016-05-12 06:00,27.0,,,1015.44,74.70,7.30,8.59,1.92,1.00,5.77,,,
2016-05-12 07:00,26.9,,,1014.84,74.20,7.41,8.74,4.01,1.00,6.15,,,
2016-05-12 08:00,26.7,,,1014.78,70.60,6.85,7.85,3.01,1.00,5.48,,,
2016-05-12 09:00,26.7,,,1015.14,66.35,5.88,7.08,1.55,1.00,4.70,,,
2016-05-12 10:00,26.8,,,1015.62,66.28,5.47,6.66,2.43,1.00,4.31,,,
2016-05-12 11:00,26.9,,,1016.10,71.60,5.35,6.86,2.19,1.00,4.46,,,
2016-05-12 12:00,27.0,,,1016.16,67.80,5.97,7.33,2.65,1.00,4.87,,,
2016-05-12 13:00,27.2,,,1016.16,79.00,6.49,7.80,3.48,1.00,5.64,,,
2016-05-12 14:00,27.4,,,1016.22,88.10,6.38,7.48,2.45,1.00,5.19,,,
2016-05-12 15:00,27.4,,,1016.16,89.40,6.45,7.75,2.29,1.00,5.23,,,
2016-05-12 16:00,27.6,,,1015.68,94.10,5.87,6.99,2.46,1.00,4.79,,,
2016-05-12 17:00,27.6,,,1015.08,86.00,6.39,7.60,2.71,1.00,5.25,,,
2016-05-12 18:00,27.5,,,1014.78,97.30,8.06,9.66,3.67,1.00,6.56,,,
2016-05-12 19:00,27.2,,,1014.60,102.20,8.86,10.20,3.98,1.00,6.97,,,
2016-05-12 20:00,27.3,,,1014.60,101.00,7.80,9.28,3.80,1.00,6.52,,,
2016-05-12 21:00,27.1,,,1014.48,95.60,7.88,8.54,3.25,1.00,6.27,,,
2016-05-12 22:00,27.1,,,1014.96,104.50,6.74,8.05,2.73,1.00,5.60,,,
2016-05-12 23:00,27.0,,,1015.56,99.90,7.03,8.19,3.10,1.00,5.60,,,
2016-05-13 00:00,27.0,,,1016.04,101.10,7.73,9.03,3.63,1.00,6.25,,,
2016-05-13 01:00,26.8,,,1016.28,93.90,6.46,7.55,2.49,1.00,5.13,,,
2016-05-13 02:00,27.0,,,1016.34,94.00,6.86,8.54,3.35,1.00,5.61,,,
2016-05-13 03:00,26.8,,,1016.46,92.40,7.91,9.58,3.61,1.00,6.43,,,
2016-05-13 04:00,26.9,,,1016.10,93.20,9.10,11.16,4.13,1.00,6.97,,,
2016-05-13 05:00,25.9,,,1015.56,120.30,9.05,9.88,3.97,1.00,6.87,,,